Location: *
(77.2610°N, 93.7740°E)
Time: 20:57:35
(UTC+00:00)

Daily predictions for brighter satellites

Satellite Brightness Start Highest point End
(mag) Time Altitude Azimuth Time Altitude Azimuth Time Altitude Azimuth
Cosmos 1633 4.3 12:01:31 10° NNW 12:04:52 34° W 12:08:13 10° SSW
Aureole 2 Rocket 4.1 12:02:27 10° SSW 12:04:19 23° S 12:04:19 23° S
Cosmos 1602 3.7 12:02:39 10° NW 12:06:32 83° WSW 12:07:44 43° SSE
Cosmos-2242 2.9 12:03:18 10° SW 12:07:35 86° NW 12:09:39 30° NE
Cosmos 2151 Rocket 4.1 12:03:13 10° NW 12:07:40 49° NNE 12:08:39 41° ENE
Meteor 1-16 Rocket 4.4 12:02:56 10° WSW 12:08:19 67° NNW 12:11:20 27° NE
CZ-4B R/B 1.3 12:08:01 69° NNE 12:08:20 80° NW 12:11:39 10° SW
Cosmos 1544 Rocket 4.3 12:04:16 10° WNW 12:08:27 42° N 12:09:49 33° NE
Landsat 5 3.4 12:07:14 35° NE 12:08:52 76° NW 12:12:48 10° SW
Cosmos 1340 Rocket 2.7 12:05:44 10° SSW 12:09:48 69° ESE 12:10:35 53° ENE
CARTOSAT-1 3.7 12:09:53 49° E 12:10:43 60° NNE 12:15:00 10° NW
Meteor 2-10 4.3 12:05:27 10° WSW 12:10:48 69° NNW 12:13:52 27° NE
CZ-4C R/B 4.2 12:09:46 32° NE 12:11:20 48° NNW 12:15:18 10° W
ALOS 2 3.2 12:10:57 37° NE 12:12:06 47° N 12:16:20 10° WNW
Cosmos 1743 3.0 12:09:44 10° NW 12:13:30 50° NNE 12:13:36 50° NE
Cosmos 1536 2.8 12:09:31 10° NW 12:13:37 68° NE 12:14:10 59° E
SL-16 R/B 2.6 12:09:56 24° NE 12:13:53 76° NNW 12:20:06 10° WSW
Cosmos 405 Rocket 3.1 12:10:49 10° WNW 12:14:45 51° NNE 12:15:12 48° NE
HJ-1C 4.3 12:12:44 19° S 12:14:49 48° WSW 12:18:05 10° NNW
Cosmos 2180 Rocket 4.4 12:09:01 10° NW 12:15:13 89° WSW 12:19:41 20° SSE
Nadezhda 3 Rocket 4.4 12:09:31 10° WSW 12:15:50 60° NNW 12:20:12 21° NE
Cosmos 1953 3.2 12:13:07 10° W 12:16:59 43° NNW 12:18:17 32° NNE
Cosmos 1727 Rocket 4.1 12:11:24 10° SW 12:17:40 76° NW 12:23:32 13° NE
Meteor 1-28 Rocket 3.3 12:16:53 41° NNE 12:18:04 75° NW 12:21:47 10° SW
Cosmos 1356 4.0 12:15:06 10° W 12:18:30 50° NNW 12:19:01 45° NNE
Cosmos 1733 Rocket 2.9 12:14:15 10° NW 12:18:38 83° NE 12:19:44 50° SE
Meteor 2-20 Rocket 4.4 12:12:43 10° S 12:18:44 58° ESE 12:24:47 10° NNE
Cosmos 371 Rocket 4.1 12:14:07 10° WNW 12:18:45 46° SSW 12:21:01 27° SSE
Cosmos 1782 Rocket 3.7 12:14:23 10° NW 12:18:51 61° NE 12:19:36 52° E
Cosmos 1500 3.1 12:15:11 10° NW 12:19:05 77° NE 12:19:28 69° ESE
Resurs 01 Rocket 1.6 12:17:33 39° SE 12:19:12 86° SW 12:23:40 10° NW
CZ-4 R/B 3.1 12:15:40 10° SSW 12:19:25 34° W 12:23:08 10° NNW
CZ-2D R/B 4.5 12:15:43 10° S 12:19:27 42° WSW 12:23:12 10° NNW
ADEOS Rocket 3.8 12:13:11 10° NNE 12:19:43 35° E 12:20:21 35° E
Cosmos 2123 Rocket 3.9 12:14:29 10° SSW 12:20:43 85° ESE 12:26:56 10° NNE
Meteor 1-12 Rocket 4.5 12:15:15 10° WNW 12:21:15 66° NNE 12:23:32 39° E
FREGAT/IRIS 3.3 12:21:47 48° WSW 12:21:47 48° WSW 12:24:29 10° NNW
Cosmos 1300 Rocket 3.9 12:18:18 10° NW 12:22:41 51° NNE 12:23:21 46° NE
Spot 4 4.1 12:21:31 43° ENE 12:22:44 55° NNE 12:27:25 10° WNW
SL-08 R/B 3.6 12:22:11 28° NE 12:24:46 71° NW 12:29:41 10° WSW
ERS-1 Rocket 2.9 12:24:02 45° ESE 12:25:36 76° NE 12:30:39 10° NW
Cosmos 1814 Rocket 4.2 12:20:50 10° SW 12:26:03 53° SSE 12:27:12 45° ESE
SAR-Lupe-4 4.0 12:25:34 44° NNE 12:26:23 58° NNW 12:29:56 10° WSW
Meteor 2-1 Rocket 4.3 12:22:02 10° SW 12:27:54 85° NW 12:32:07 20° NE
SPOT 1/Viking Rocket 3.5 12:27:05 44° ESE 12:28:48 79° NE 12:34:04 10° NW
Cosmos 1346 Rocket 2.9 12:26:22 10° NW 12:30:16 68° WSW 12:31:12 47° S
Meteor 2-20 4.4 12:24:16 10° S 12:30:22 67° ESE 12:36:32 10° NNE
IRAS Rocket 4.3 12:28:29 40° E 12:30:31 70° N 12:36:09 10° WNW
CENTAUR R/B 4.1 12:25:04 10° WSW 12:30:58 29° S 12:34:36 20° SSE
Cosmos 2263 Rocket 3.9 12:26:25 10° WNW 12:31:07 28° SW 12:35:48 10° S
Cosmos 1733 4.1 12:27:58 10° WNW 12:31:37 38° N 12:32:11 36° NNE
ASTEX 1 3.9 12:27:37 10° NNE 12:32:34 61° WNW 12:37:31 10° SW
Meteor 2-10 Rocket 3.3 12:29:07 10° SSW 12:34:12 77° SE 12:37:07 27° NE
Cosmos 1939 Rocket 4.2 12:31:26 10° S 12:35:23 40° W 12:39:18 10° NNW
Cosmos 1455 2.1 12:31:45 10° SW 12:35:32 82° NW 12:36:05 63° NNE
Cosmos 1943 Rocket 2.6 12:30:23 10° SW 12:35:43 43° SSE 12:36:44 39° SE
Cosmos 1763 Rocket 3.6 12:31:09 10° WSW 12:36:13 57° SSE 12:37:09 49° ESE
CZ-4C R/B 3.7 12:35:37 42° NNE 12:36:26 53° NNW 12:39:54 10° WSW
Cosmos 841 Rocket 3.6 12:33:17 10° SW 12:38:26 55° SSE 12:39:18 49° ESE
Cosmos 468 Rocket 4.1 12:33:42 10° WSW 12:38:46 59° SSE 12:39:44 50° ESE
Meteor 2-2 Rocket 4.2 12:33:05 10° SSW 12:38:48 64° ESE 12:44:26 10° NE
Cosmos 1992 Rocket 4.3 12:34:26 10° W 12:39:34 57° SSW 12:41:05 41° SE
Okean 2 Rocket 3.2 12:37:39 10° NW 12:42:01 57° NNE 12:42:23 55° NE
COSMO-SKYMED 1 4.2 12:47:04 22° S 12:47:04 22° S 12:48:40 10° S
Meteor 1-27 4.1 12:40:01 10° SSW 12:45:45 72° ESE 12:51:34 10° NE
Cosmos 1606 Rocket 4.4 12:41:34 10° W 12:45:46 45° NNW 12:47:08 34° NNE
SPOT 5 2.7 12:45:01 59° ESE 12:45:51 76° NE 12:50:25 10° NW
Meteor 1-15 Rocket 4.4 12:40:14 10° WNW 12:45:52 62° NNE 12:47:33 43° ENE
Cosmos 1975 3.0 12:41:57 10° NW 12:45:56 57° NNE 12:45:56 57° NNE
Meteor 1-22 Rocket 4.4 12:41:49 10° WNW 12:47:04 58° N 12:48:43 40° ENE
ATLAS 3B R/B 4.0 12:42:05 10° WSW 12:47:22 26° S 12:49:43 21° SSE
Cosmos 304 Rocket 4.4 12:43:59 10° WNW 12:48:36 47° SSW 12:49:56 37° SSE
Cosmos 1805 4.1 12:44:55 10° WNW 12:48:40 40° N 12:48:59 39° NNE
CZ-2C R/B 4.3 12:44:44 10° NNE 12:46:48 18° NE 12:46:48 18° NE
Cosmos 1758 4.2 12:45:04 10° WNW 12:48:58 41° N 12:49:44 36° NNE
Meteor 2-9 Rocket 4.2 12:43:26 10° NW 12:49:01 72° NNE 12:50:33 49° E
Cosmos 1570 Rocket 4.1 12:44:51 10° WSW 12:50:07 60° SSE 12:51:02 52° ESE
ARGOS Delta rocket 3.8 12:49:19 58° E 12:50:08 70° NE 12:55:09 10° NW
YAOGAN 11 4.5 12:53:26 48° NE 12:54:00 52° NNE 12:58:20 10° WNW
Cosmos 292 Rocket 4.0 12:50:47 10° W 12:55:31 57° SSW 12:56:18 50° SSE
SL-19 R/B 4.4 12:54:23 41° ENE 12:56:22 72° N 13:02:01 10° W
USA 245 3.3 12:57:20 61° NW 12:57:20 61° NW 13:00:35 10° NW
SPOT 3 Rocket 4.2 12:52:57 17° S 12:56:57 55° WSW 13:02:07 10° NNW
Landsat 7 3.7 12:56:15 59° SE 12:57:10 87° NE 13:01:59 10° NW
MetOp-B 4.2 12:55:33 39° SSE 12:57:38 78° SW 13:03:03 10° NW
Cosmos 1726 3.1 12:54:24 10° W 12:57:56 40° NNW 12:58:30 37° N
Ariane Rocket 4.3 12:53:56 10° S 12:58:45 40° W 13:03:35 10° NNW
Cosmos 2315 Rocket 4.2 12:52:58 10° NW 12:59:18 63° NNE 13:01:16 44° E
PSLV R/B 3.9 12:59:56 60° NE 13:00:42 89° WNW 13:04:57 10° SW
Cosmos 1544 3.8 12:57:19 10° NW 13:00:23 44° N 13:00:23 44° N
Cosmos 921 Rocket 2.9 12:57:06 10° W 13:01:20 69° SSW 13:01:28 68° S
Cosmos 1441 Rocket 3.2 12:57:57 10° NW 13:01:51 78° N 13:01:51 78° N
H-2A R/B 2.7 12:58:09 17° S 13:02:13 56° WSW 13:07:27 10° NNW
CZ-2C R/B 3.4 13:00:29 27° S 13:03:14 63° WSW 13:08:10 10° NNW
Resurs 1-3 4.1 13:03:50 37° S 13:05:22 59° WSW 13:09:45 10° NNW
Cosmos 1340 3.4 13:02:08 10° NW 13:05:48 49° WSW 13:06:22 45° SW
Cosmos 1908 Rocket 3.4 13:01:29 10° NW 13:06:01 88° ENE 13:06:24 74° SE
Cosmos 1666 2.8 13:02:59 10° NW 13:06:33 73° NNW 13:06:33 73° NNW
Cosmos 540 Rocket 3.5 13:02:52 10° WSW 13:07:57 57° SSE 13:08:13 56° SE
Cosmos 2058 Rocket 3.9 13:03:43 10° W 13:08:03 46° NNW 13:09:26 35° NNE
USA 186 3.9 13:09:10 21° WNW 13:09:10 21° WNW 13:10:29 10° NW
Cosmos 2278 Rocket 2.9 13:03:23 10° W 13:08:44 43° SSW 13:10:04 37° SSE
Cosmos 1689 Rocket 3.6 13:09:46 35° W 13:09:46 35° W 13:11:47 10° WSW
Cosmos 2228 3.9 13:07:50 10° W 13:11:55 42° N 13:12:49 37° NNE
IGS 5A 3.3 13:12:30 88° E 13:12:32 88° NE 13:16:45 10° NW
COBE Rocket 3.8 13:08:49 10° NNE 13:13:53 87° SE 13:18:45 10° SSW
Meteor 1-11 Rocket 3.9 13:09:11 10° NW 13:14:51 70° WSW 13:17:17 36° SSE
Cosmos 2346 Rocket 4.4 13:08:51 10° S 13:15:00 65° ESE 13:21:05 10° NNE
Helios 1A 3.3 13:15:16 55° NNE 13:15:16 55° NNE 13:19:18 10° NW
Cosmos 1726 Rocket 4.4 13:11:48 10° W 13:15:59 43° N 13:16:57 37° NNE
Cosmos 1812 Rocket 4.3 13:11:42 10° WSW 13:16:04 51° NNW 13:17:37 35° NNE
Cosmos 1844 Rocket 3.9 13:11:28 10° WNW 13:16:24 33° SW 13:18:33 25° S
Cosmos 1656 Rocket 4.1 13:11:51 10° SW 13:16:34 41° S 13:16:34 41° S
S3M 4.0 13:12:08 10° NW 13:18:35 76° NE 13:20:23 50° ESE
MOZ.5/SAFIR/RUBIN 5/SL-8 4.5 13:17:29 37° NE 13:18:57 51° N 13:23:36 10° W
SL-08 RB Rocket 4.3 13:18:23 34° SSW 13:20:02 53° WSW 13:24:28 10° NNW
ERS-2 3.0 13:20:19 44° N 13:20:19 44° N 13:23:47 10° WNW
Cosmos 1300 3.6 13:16:37 10° W 13:20:20 46° NNW 13:20:55 42° N
ARGOS 3.9 13:17:49 19° S 13:21:38 51° WSW 13:26:56 10° NNW
Okean 1 Rocket 3.4 13:17:45 10° NW 13:22:07 55° NNE 13:22:07 55° NNE
Cosmos 1766 4.1 13:19:09 10° WNW 13:22:50 42° N 13:22:50 42° N
Cosmos 1184 Rocket 4.3 13:20:38 10° NW 13:22:48 34° NNW 13:22:48 34° NNW
Aureole 3 4.1 13:23:25 10° NW 13:27:07 45° NNE 13:27:09 45° NNE
SJ-6B 4.1 13:26:06 27° SW 13:27:33 37° W 13:31:14 10° NNW
Spot 2 Rocket 3.7 13:26:22 44° S 13:27:54 66° WSW 13:33:03 10° NW
Meteor 2-8 Rocket 4.5 13:22:55 10° NW 13:29:04 70° NE 13:30:26 54° E
Cosmos 2181 Rocket 4.5 13:23:43 10° WNW 13:29:53 53° N 13:32:06 36° ENE
Terra 1.6 13:30:42 77° SE 13:31:04 87° NE 13:35:52 10° NW
Nadezhda 1 Rocket 4.3 13:25:58 10° WNW 13:32:18 58° NNE 13:34:06 43° ENE
UNK 4.4 13:31:59 40° NE 13:33:06 50° N 13:37:36 10° W
Cosmos 1908 4.2 13:29:39 10° W 13:33:17 39° NNW 13:33:34 39° N
Cosmos 2221 2.6 13:29:15 10° SW 13:33:38 76° NW 13:34:23 59° NNE
Sich 1 Rocket 3.5 13:30:45 10° NW 13:35:21 86° NE 13:35:21 86° NE
Tsikada Rocket 3.9 13:29:07 10° S 13:35:29 70° ESE 13:41:54 10° NNE
H-2A R/B 2.7 13:35:17 44° NNE 13:36:11 52° NNW 13:40:26 10° W
Cosmos 2208 Rocket 4.0 13:31:39 10° WSW 13:36:50 62° S 13:36:56 62° SSE
Cosmos 1455 Rocket 3.6 13:35:19 10° NW 13:39:28 48° NNE 13:39:28 48° NNE
Cosmos 1470 3.8 13:36:15 10° WNW 13:39:47 39° N 13:39:47 39° N
CZ-4B R/B 2.8 13:41:17 36° WNW 13:41:17 36° WNW 13:43:43 10° W
Cosmos 2297 4.2 13:35:54 10° W 13:41:21 45° SSW 13:41:49 44° S
Cosmos 1842 Rocket 3.8 13:37:34 10° SW 13:42:04 68° NW 13:43:16 46° NNE
Cosmos 1816 Rocket 4.4 13:37:00 10° SSW 13:43:22 73° ESE 13:49:45 10° NNE
Cosmos 2369 Rocket 2.6 13:38:31 10° WSW 13:43:40 46° S 13:43:40 46° S
Cosmos 192 4.5 13:39:01 10° WSW 13:43:38 60° SSW 13:43:38 60° SSW
Landsat 5 4.1 13:43:49 47° N 13:44:14 50° NNW 13:48:04 10° W
Cosmos-2242 3.7 13:41:20 10° WSW 13:45:32 52° NNW 13:46:30 42° NNE
CZ-4C R/B 4.2 13:45:30 45° NNE 13:45:40 45° N 13:49:39 10° WNW
Cosmos 2151 Rocket 3.7 13:41:43 10° NW 13:46:01 71° NNE 13:46:01 71° NNE
Cosmos 1340 Rocket 3.1 13:42:18 10° WSW 13:46:11 66° NW 13:46:11 66° NW
CARTOSAT-1 3.6 13:47:00 78° W 13:47:00 78° W 13:51:10 10° NW
Cosmos 1544 Rocket 4.1 13:42:46 10° NW 13:46:55 48° NNE 13:46:55 48° NNE
Cosmos 1553 Rocket 3.8 13:41:40 10° NW 13:47:49 90° ENE 13:49:11 57° SSE
ALOS 2 2.9 13:48:21 58° NNE 13:48:21 58° NNE 13:52:29 10° NW
Cosmos 1743 3.4 13:45:44 10° NW 13:48:41 51° NW 13:48:41 51° NW
Cosmos 1536 3.3 13:46:05 10° NNW 13:49:53 60° W 13:49:53 60° W
Cosmos 405 Rocket 3.4 13:47:07 10° NW 13:50:20 55° NNW 13:50:20 55° NNW
Meteor 1-28 Rocket 4.1 13:51:51 44° NNW 13:51:56 44° NNW 13:55:29 10° W
Cosmos 1953 3.3 13:50:17 10° WNW 13:53:58 40° N 13:53:58 40° N
Cosmos 1500 4.0 13:50:53 10° NNW 13:54:21 49° W 13:54:21 49° W
CZ-4 R/B 4.3 13:52:53 10° WSW 13:55:34 17° WNW 13:58:14 10° NNW
Resurs 01 Rocket 2.6 13:55:08 38° SW 13:56:08 44° WSW 14:00:24 10° NNW
Cosmos 1733 Rocket 3.7 13:52:08 10° NNW 13:56:21 49° WSW 13:56:49 47° SW
Cosmos 1782 Rocket 3.7 13:52:28 10° NW 13:56:45 75° W 13:56:45 75° W
SL-16 R/B 2.8 13:55:02 39° ENE 13:57:22 67° N 14:03:32 10° W
Spot 4 3.8 14:00:39 77° NNE 14:00:39 77° NNE 14:05:23 10° NW
Cosmos 1300 Rocket 3.8 13:56:25 10° NW 14:00:24 68° NNW 14:00:24 68° NNW
SL-08 R/B 3.9 14:01:09 42° NE 14:02:23 54° NNW 14:07:11 10° W
Meteor 2-20 Rocket 4.4 13:57:23 10° SW 14:03:34 85° NW 14:09:49 10° NE
ERS-1 Rocket 3.1 14:04:02 61° SSW 14:04:37 66° WSW 14:09:40 10° NW
Meteor 1-12 Rocket 4.2 13:59:25 10° NW 14:05:29 89° NE 14:06:23 67° SE
Cosmos 1346 Rocket 4.3 14:02:47 10° NW 14:06:16 31° W 14:06:42 30° WSW
Cosmos 2123 Rocket 4.3 14:00:21 10° WSW 14:06:32 65° NW 14:12:43 10° NE
ADEOS Rocket 3.2 13:59:24 10° NNE 14:06:35 59° ESE 14:07:17 56° SE
Cosmos 1814 Rocket 4.1 14:02:27 10° WSW 14:07:25 62° SSW 14:07:25 62° SSW
Cosmos 1733 4.4 14:04:15 10° NW 14:07:09 38° NNW 14:07:09 38° NNW
SPOT 1/Viking Rocket 3.8 14:07:43 56° SSW 14:08:30 64° WSW 14:13:43 10° NW
CZ-4C R/B 4.5 14:09:19 37° NNW 14:09:19 37° NNW 14:12:14 10° W
IRAS Rocket 4.1 14:10:44 73° ESE 14:11:19 87° NE 14:17:00 10° NW
Cosmos 1455 3.3 14:07:52 10° WSW 14:11:00 43° NW 14:11:00 43° NW
Cosmos 1417 Rocket 4.4 14:08:13 10° NNW 14:14:33 82° WSW 14:15:47 60° SSE
Meteor 2-10 Rocket 3.7 14:11:24 10° WSW 14:16:29 69° NNW 14:18:14 41° NE
Cosmos 1763 Rocket 3.7 14:12:39 10° W 14:17:10 57° SW 14:17:10 57° SW
Cosmos 1943 Rocket 2.7 14:13:26 10° WSW 14:18:15 44° SSW 14:18:15 44° SSW
CENTAUR R/B 4.3 14:14:18 10° W 14:19:53 24° SSW 14:21:47 22° SSW
Cosmos 841 Rocket 3.7 14:14:48 10° W 14:19:23 58° SW 14:19:23 58° SW
Aureole 3 Rocket 4.4 14:11:20 10° NNW 14:20:09 82° WSW 14:21:58 54° SSE
Okean 2 Rocket 3.4 14:15:58 10° NW 14:19:44 64° NW 14:19:44 64° NW
Cosmos 468 Rocket 4.2 14:15:21 10° W 14:19:52 57° SW 14:19:52 57° SW
Meteor 2-2 Rocket 4.3 14:16:49 10° SW 14:22:38 80° NW 14:28:22 10° NE
Cosmos 1975 3.7 14:18:37 10° NW 14:21:41 49° NW 14:21:41 49° NW
SPOT 5 3.0 14:24:16 62° WSW 14:24:16 62° WSW 14:28:44 10° NW
Cosmos 1606 Rocket 4.4 14:20:09 10° WNW 14:24:15 44° N 14:24:15 44° N
Cosmos 1805 4.5 14:21:24 10° NW 14:24:15 40° NNW 14:24:15 40° NNW
Cosmos 1758 4.4 14:22:11 10° NW 14:25:28 41° N 14:25:28 41° N
Nadezhda 4 Rocket 4.2 14:27:15 53° ENE 14:27:15 53° ENE 14:32:45 10° NNE
ARGOS Delta rocket 4.0 14:28:56 66° WSW 14:28:58 66° WSW 14:33:58 10° NNW
Meteor 1-27 4.4 14:23:23 10° WSW 14:29:10 75° NW 14:34:11 14° NE
Meteor 1-15 Rocket 4.1 14:24:05 10° NW 14:29:48 82° NE 14:30:02 80° E
CZ-2C R/B 4.0 14:25:31 10° NNE 14:28:19 27° NE 14:28:19 27° NE
Meteor 1-22 Rocket 4.1 14:25:33 10° NW 14:30:52 70° NNE 14:30:59 70° NE
Meteor 2-9 Rocket 4.1 14:26:26 10° NW 14:32:01 76° WSW 14:32:24 72° SSW
Cosmos 1570 Rocket 4.3 14:26:48 10° W 14:31:27 57° SW 14:31:27 57° SW
Cosmos 1726 3.7 14:30:19 10° WNW 14:33:00 33° NNW 14:33:00 33° NNW
Meteor 2-15 4.3 14:28:11 10° NW 14:34:17 78° NE 14:34:50 71° E
Landsat 7 4.3 14:35:08 52° WSW 14:35:18 52° WSW 14:40:00 10° NNW
ATLAS 3B R/B 4.2 14:31:34 10° W 14:36:13 20° SW 14:36:57 20° SSW
Cosmos 1441 Rocket 4.5 14:33:59 10° NW 14:36:55 41° WNW 14:36:55 41° WNW
Cosmos 921 Rocket 4.2 14:35:18 10° WNW 14:38:15 37° W 14:38:15 37° W
SL-19 R/B 4.2 14:40:27 75° ENE 14:40:51 80° NNE 14:46:30 10° WNW
Cosmos 883 Rocket 4.4 14:34:55 10° NNW 14:41:14 87° WSW 14:41:59 72° SSE
Cosmos 1666 4.1 14:38:40 10° NNW 14:41:26 36° WNW 14:41:26 36° WNW
H-2A R/B 3.7 14:38:47 14° SW 14:42:37 31° W 14:47:19 10° NNW
Cosmos 1908 Rocket 4.4 14:39:26 10° NNW 14:43:34 47° W 14:43:34 47° W
CZ-2C R/B 4.4 14:41:33 22° SW 14:43:57 33° W 14:48:28 10° NNW
Cosmos 2315 Rocket 3.9 14:38:58 10° NW 14:45:23 90° W 14:46:06 73° SSE
Cosmos 2058 Rocket 4.0 14:42:28 10° WNW 14:46:42 45° N 14:46:42 45° N
IGS 5A 4.5 14:48:58 43° WNW 14:48:58 43° WNW 14:52:25 10° NNW
Cosmos 540 Rocket 4.1 14:44:10 10° W 14:48:02 47° WSW 14:48:02 47° WSW
Cosmos 2228 4.0 14:46:06 10° WNW 14:49:39 42° N 14:49:39 42° N
Helios 1A 3.9 14:51:54 47° NW 14:51:54 47° NW 14:54:54 10° NW
Cosmos 2278 Rocket 3.3 14:46:59 10° WNW 14:51:55 31° SW 14:51:55 31° SW
COBE Rocket 4.4 14:47:21 10° NE 14:52:18 59° NNW 14:57:06 10° WSW
ERS-2 3.9 14:54:56 32° NW 14:54:56 32° NW 14:57:09 10° NW
Cosmos 2026 Rocket 4.5 14:55:31 44° ENE 14:55:31 44° ENE 15:00:10 10° NNE
MOZ.5/SAFIR/RUBIN 5/SL-8 4.4 14:56:09 52° NNE 14:56:09 52° NNE 15:00:49 10° WNW
Cosmos 1300 4.3 14:53:03 10° WNW 14:55:51 34° NNW 14:55:51 34° NNW
Cosmos 1844 Rocket 4.5 14:55:01 10° WNW 14:59:01 21° WSW 15:00:12 19° SW
Cosmos 2346 Rocket 4.5 14:53:51 10° SW 15:00:06 79° NW 15:06:17 10° NE
Okean 1 Rocket 3.8 14:55:55 10° NW 14:59:18 51° NW 14:59:18 51° NW
Meteor 2-15 Rocket 4.3 14:55:05 10° NW 15:01:13 82° NE 15:01:30 79° E
S3M 4.1 14:57:46 10° NNW 15:04:08 69° WSW 15:05:04 61° SSW
Cosmos 1092 Rocket 4.2 15:07:13 56° ENE 15:07:13 56° ENE 15:12:39 10° NNE
Terra 2.5 15:09:36 50° W 15:09:36 50° W 15:13:53 10° NNW
UNK 4.4 15:10:20 51° N 15:10:20 51° N 15:14:32 10° WNW
Cosmos 2221 3.5 15:07:25 10° W 15:11:14 47° NW 15:11:14 47° NW
H-2A R/B 3.0 15:12:23 48° NNW 15:12:23 48° NNW 15:16:07 10° WNW
CZ-4B R/B 4.1 15:14:34 17° WNW 15:14:34 17° WNW 15:15:35 10° WNW
Meteor 2-8 Rocket 4.3 15:08:02 10° NNW 15:14:12 78° WSW 15:14:29 76° SSW
Cosmos 2181 Rocket 4.1 15:10:02 10° NW 15:16:18 65° NE 15:16:56 61° ENE
Cosmos 1470 4.5 15:12:47 10° NW 15:15:07 32° NNW 15:15:07 32° NNW
Cosmos 1455 Rocket 4.1 15:13:30 10° NW 15:16:34 44° NNW 15:16:34 44° NNW
Nadezhda 1 Rocket 3.9 15:11:52 10° NW 15:18:19 79° NE 15:18:43 76° E
Tsikada Rocket 4.1 15:14:46 10° SW 15:21:12 76° NW 15:27:41 10° NE
Cosmos 1340 Rocket 4.5 15:19:19 10° W 15:21:47 32° WNW 15:21:47 32° WNW
Cosmos-2242 4.2 15:19:42 10° WNW 15:23:20 40° NNW 15:23:20 40° NNW
ALOS 2 3.5 15:25:44 47° NW 15:25:44 47° NW 15:28:55 10° NW
Cosmos 2369 Rocket 3.3 15:21:57 10° W 15:25:26 32° WSW 15:25:26 32° WSW
Mayak 1.2 15:25:40 10° NNE 15:26:36 15° NE 15:26:36 15° NE
Cosmos 1953 4.0 15:27:12 10° NW 15:29:40 33° NNW 15:29:40 33° NNW
Cosmos 1553 Rocket 4.4 15:27:07 10° NNW 15:33:01 54° W 15:33:49 50° SW
Resurs 01 Rocket 3.6 15:32:42 21° W 15:33:39 22° W 15:37:09 10° NNW
Meteor 1-16 Rocket 4.3 15:29:57 10° WNW 15:35:16 67° NNE 15:35:16 67° NNE
Meteor 2-10 4.3 15:30:31 10° WNW 15:35:52 66° NNE 15:35:52 66° NNE
Iridium 4 Rocket 4.3 15:38:48 51° NE 15:38:48 51° NE 15:43:48 10° N
SL-08 R/B 4.0 15:40:08 54° N 15:40:08 54° N 15:44:41 10° WNW
SL-16 R/B 2.6 15:40:08 67° ENE 15:40:50 74° NNE 15:47:03 10° WNW
ERS-1 Rocket 4.1 15:44:02 35° W 15:44:10 35° W 15:48:50 10° NNW
Cosmos 1455 4.5 15:44:16 10° WNW 15:45:55 22° WNW 15:45:55 22° WNW
Nadezhda 3 Rocket 4.3 15:42:19 10° NW 15:48:38 60° NNE 15:49:38 54° ENE
ADEOS Rocket 3.2 15:45:18 10° NE 15:52:39 90° SSE 15:54:13 58° SW
Meteor 2-10 Rocket 4.0 15:54:05 10° W 15:59:08 57° N 15:59:21 57° N
Cosmos 1943 Rocket 3.6 15:56:39 10° W 15:59:45 28° WSW 15:59:45 28° WSW
SPOT 5 4.2 16:03:30 31° W 16:03:30 31° W 16:07:10 10° NNW
CZ-2C R/B 3.5 16:06:13 10° NE 16:09:49 42° NE 16:09:49 42° NE
Nadezhda 4 Rocket 3.9 16:11:48 88° NNW 16:11:48 88° NNW 16:18:09 10° NE
Meteor 1-26 Rocket 4.4 16:14:01 76° N 16:14:01 76° N 16:19:33 10° NE
Cosmos 2266 Rocket 4.4 16:16:34 53° ENE 16:16:34 53° ENE 16:22:01 10° NNE
Resurs 1-4 Rocket 4.4 16:14:58 10° NNE 16:17:38 14° NE 16:18:52 13° ENE
Cosmos 2058 Rocket 4.4 16:20:58 10° NW 16:23:58 39° NNW 16:23:58 39° NNW
Cosmos 2315 Rocket 4.4 16:24:37 10° NNW 16:30:48 54° W 16:30:57 54° WSW
Cosmos 2278 Rocket 4.1 16:30:47 10° WNW 16:33:45 18° W 16:33:45 18° W
Cosmos 2026 Rocket 4.0 16:40:04 71° NE 16:40:04 71° NE 16:45:29 10° NNE
Cosmos 1655 Rocket 4.1 16:40:12 65° ENE 16:40:12 65° ENE 16:45:48 10° NNE
CZ-2D R/B 4.3 16:44:20 10° NNE 16:47:36 16° ENE 16:48:35 15° ENE
H-2A R/B 3.6 16:49:29 34° NW 16:49:29 34° NW 16:52:01 10° NW
Terra 3.5 16:48:29 26° WNW 16:48:29 26° WNW 16:51:59 10° NNW
Cosmos 2221 4.4 16:45:47 10° WNW 16:48:05 27° NW 16:48:05 27° NW
Cosmos 1092 Rocket 4.0 16:51:52 83° NNW 16:51:52 83° NNW 16:58:09 10° NE
SL-16 R/B 4.5 16:56:56 12° ENE 16:56:56 12° ENE 16:57:53 10° ENE
ALOS 2 4.4 17:03:08 28° NW 17:03:08 28° NW 17:05:30 10° NNW
Cosmos 2181 Rocket 4.0 16:55:58 10° NNW 17:01:44 76° NW 17:01:44 76° NW
Nadezhda 1 Rocket 4.2 16:57:23 10° NNW 17:03:19 64° W 17:03:19 64° W
Mayak 0.9 17:01:29 10° NNE 17:03:10 23° NE 17:03:10 23° NE
Cosmos 2369 Rocket 4.1 17:05:31 10° WNW 17:07:14 18° W 17:07:14 18° W
Cosmos 2195 Rocket 4.5 17:11:00 79° NNW 17:11:00 79° NNW 17:17:03 10° NE
Resurs 01 Rocket 4.4 17:10:16 10° WNW 17:11:46 12° NW 17:13:25 10° NW
SL-08 R/B 4.4 17:19:07 42° NW 17:19:07 42° NW 17:22:25 10° NW
Iridium 4 Rocket 4.0 17:18:35 72° N 17:18:35 72° N 17:23:53 10° NNE
Cosmos 2237 Rocket 4.2 17:26:54 16° E 17:26:54 16° E 17:28:29 10° ENE
SL-16 R/B 2.6 17:25:14 72° WNW 17:25:14 72° WNW 17:30:51 10° NW
Meteor 1-27 Rocket 4.0 17:30:10 64° NNE 17:30:10 64° NNE 17:35:03 10° NE
ADEOS II 4.4 17:30:33 10° NNE 17:33:38 15° ENE 17:35:53 12° E
Nadezhda 3 Rocket 4.0 17:28:14 10° NW 17:34:20 81° N 17:34:20 81° N
Meteor 2-4 Rocket 4.2 17:37:05 56° ENE 17:37:05 56° ENE 17:41:54 10° NE
Cosmos 1727 Rocket 4.3 17:30:20 10° NW 17:36:38 65° NE 17:37:39 57° E
ADEOS Rocket 3.5 17:30:49 10° ENE 17:38:08 70° NNW 17:41:08 36° W
Meteor 2-1 Rocket 4.5 17:33:43 10° NW 17:39:13 72° N 17:39:13 72° N
Meteor 2-10 Rocket 4.3 17:36:41 10° WNW 17:40:29 47° NW 17:40:29 47° NW
Cosmos 1745 Rocket 4.3 17:43:24 56° E 17:43:24 56° E 17:49:15 10° NNE
Cosmos 1943 Rocket 4.3 17:39:58 10° WNW 17:41:16 15° W 17:41:16 15° W
CZ-2C R/B 3.0 17:46:41 10° NE 17:51:19 61° NNE 17:51:19 61° NNE
Nadezhda 4 Rocket 4.4 17:56:22 53° WNW 17:57:34 62° NNW 18:03:53 10° NE
Cosmos 2333 Rocket 4.1 18:01:03 20° E 18:01:03 20° E 18:02:58 10° E
Resurs 1-4 Rocket 3.8 17:55:09 10° NNE 17:59:27 24° ENE 17:59:56 24° E
Cosmos 2266 Rocket 4.0 18:01:08 84° N 18:01:08 84° N 18:07:25 10° NE
Meteor 2-19 Rocket 4.5 18:15:04 73° ENE 18:15:04 73° ENE 18:20:40 10° NNE
Cosmos 2219 Rocket 4.0 18:18:47 21° E 18:18:47 21° E 18:20:50 10° E
Cosmos 1339 Rocket 4.5 18:13:30 10° NW 18:19:58 83° NE 18:20:04 82° ENE
H-2A R/B 4.1 18:26:36 22° NW 18:26:36 22° NW 18:28:09 10° NW
Cosmos 2026 Rocket 4.1 18:24:37 62° NW 18:25:03 64° NNW 18:31:07 10° NE
Cosmos 1655 Rocket 4.0 18:25:08 73° WNW 18:25:20 73° NW 18:31:43 10° NE
Terra 4.2 18:27:22 14° WNW 18:27:22 14° WNW 18:29:54 10° NNW
CZ-2D R/B 3.6 18:24:50 10° NNE 18:29:27 28° E 18:29:54 28° E
Meteor 1-10 Rocket 4.5 18:30:54 62° NNW 18:30:54 62° NNW 18:36:26 10° ENE
MOS 1 Rocket 4.4 18:31:09 10° NE 18:34:03 38° NNE 18:34:03 38° NNE
SL-16 R/B 3.8 18:38:49 23° ESE 18:38:49 23° ESE 18:41:55 10° ENE
Cosmos 1092 Rocket 4.4 18:36:30 51° WNW 18:37:44 59° NNW 18:44:01 10° NE
Mayak 0.3 18:37:16 10° NE 18:39:44 34° NE 18:39:44 34° NE
Meteor 2-14 Rocket 4.5 18:46:50 70° E 18:46:50 70° E 18:52:36 10° NNE
Cosmos 1066 Rocket 4.5 18:48:44 67° ENE 18:48:44 67° ENE 18:54:02 10° NE
Okean 1-7 4.5 18:50:13 36° NNE 18:50:13 36° NNE 18:53:01 10° NE
COSMOS 2428 4.2 18:51:34 26° ESE 18:51:34 26° ESE 18:54:16 10° E
Thor Agena Rocket 4.0 18:43:51 10° NE 18:48:02 59° NE 18:48:02 59° NE
Cosmos 1386 Rocket 4.4 18:52:41 77° E 18:52:41 77° E 18:58:45 10° NNE
Cosmos 1244 Rocket 4.4 18:57:20 85° NW 18:57:20 85° NW 19:03:46 10° NE
Cosmos 1709 Rocket 4.0 18:57:53 70° ESE 18:57:57 70° ESE 19:04:16 10° NNE
Iridium 4 Rocket 4.3 18:58:22 53° NW 18:58:27 53° NW 19:04:14 10° NNE
SL-16 R/B 4.3 19:07:46 14° ESE 19:07:46 14° ESE 19:08:34 10° ESE
Cosmos 2228 Rocket 4.2 19:05:16 44° NNE 19:05:16 44° NNE 19:09:24 10° E
Cosmos 2360 Rocket 3.8 19:08:57 23° ESE 19:08:57 23° ESE 19:11:06 10° ESE
Cosmos 2237 Rocket 3.5 19:08:44 30° ESE 19:08:44 30° ESE 19:12:07 10° E
Cosmos 1809 Rocket 4.3 19:07:29 83° E 19:07:29 83° E 19:13:25 10° NE
SL-16 R/B 3.2 19:10:20 43° WNW 19:10:20 43° WNW 19:14:56 10° NNW
Meteor 1-19 Rocket 4.3 19:12:25 73° N 19:12:25 73° N 19:17:43 10° NE
Meteor 1-23 Rocket 4.3 19:12:43 76° ENE 19:12:43 76° ENE 19:18:03 10° NE
Meteor 1-27 Rocket 4.0 19:12:35 58° NW 19:13:07 61° NNW 19:18:52 10° ENE
Cosmos 2322 Rocket 4.2 19:18:09 17° ESE 19:18:09 17° ESE 19:19:22 10° ESE
ADEOS II 3.7 19:10:39 10° NNE 19:15:09 27° E 19:16:48 23° ESE
Meteor 1-18 Rocket 4.4 19:16:15 70° NNW 19:16:18 71° NNW 19:22:04 10° NE
Meteor 2-4 Rocket 3.8 19:19:10 79° NNW 19:19:10 79° NNW 19:25:04 10° NE
CZ-2C R/B 4.5 19:14:39 10° E 19:18:57 51° NNE 19:18:57 51° NNE
Nadezhda 3 Rocket 4.4 19:13:49 10° NNW 19:19:02 52° WNW 19:19:02 52° WNW
Meteor 2-21 Rocket 4.3 19:22:02 82° ESE 19:22:02 82° ESE 19:28:07 10° NE
Meteor 1-13 Rocket 4.3 19:22:22 79° N 19:22:22 79° N 19:27:51 10° NE
Cosmos 1727 Rocket 3.9 19:16:09 10° NNW 19:22:21 83° W 19:22:21 83° W
ADEOS Rocket 3.7 19:16:00 10° E 19:23:22 65° N 19:28:04 21° WNW
Meteor 2-16 Rocket 4.3 19:24:12 80° ESE 19:24:13 80° ESE 19:30:23 10° NNE
Cosmos 2123 Rocket 4.0 19:19:05 10° NW 19:25:19 76° NE 19:28:32 30° SE
Helios 1B rocket 3.8 19:22:23 10° NE 19:25:01 38° NE 19:25:01 38° NE
Cosmos 1745 Rocket 3.9 19:28:04 84° WSW 19:28:18 87° WNW 19:34:44 10° NE
CZ-2C R/B 3.1 19:26:52 10° ENE 19:32:12 56° N 19:32:50 53° NW
Meteor 2-2 Rocket 4.2 19:30:00 10° NW 19:35:45 80° NE 19:41:27 10° SE
Cosmos 1315 Rocket 4.5 19:40:28 32° ENE 19:40:28 32° ENE 19:42:52 10° ENE
Resurs 1-4 Rocket 2.9 19:35:27 10° NNE 19:40:34 44° E 19:41:01 43° ESE
Meteor 1-27 4.2 19:34:49 10° NW 19:40:40 86° NE 19:40:49 84° E
Cosmos 2333 Rocket 3.3 19:43:03 34° SE 19:43:03 34° SE 19:46:43 10° E
Cosmos 2154 Rocket 4.4 19:41:17 51° SE 19:42:22 58° E 19:48:35 10° NNE
SL-08 ROCKET BODY 4.3 19:42:46 84° WSW 19:42:58 88° NW 19:49:15 10° NE
CZ-4B R/B 4.1 19:39:29 10° NNE 19:44:29 51° ESE 19:44:29 51° ESE
COBE Rocket 4.3 19:41:31 10° ESE 19:46:34 65° NE 19:51:27 10° NW
Cosmos 2266 Rocket 4.3 19:45:43 54° WNW 19:46:46 62° NNW 19:53:10 10° NE
Cosmos 2184 Rocket 4.1 19:46:12 62° SSE 19:46:59 68° ESE 19:53:20 10° NNE
Cosmos 2074 Rocket 4.0 19:47:40 64° SE 19:48:17 69° ESE 19:54:31 10° NNE
Cosmos 1151 Rocket 4.0 19:50:32 45° ENE 19:50:32 45° ENE 19:54:04 10° ESE
SL-08 R/B 4.4 19:56:08 71° WNW 19:56:30 73° NW 20:02:39 10° NE
ATLAS 2AS CENTAUR R/B 4.2 20:00:46 25° SSE 20:00:46 25° SSE 20:04:34 10° SE
Cosmos 2219 Rocket 3.1 20:00:30 36° SE 20:00:30 36° SE 20:04:15 10° E
Meteor 2-19 Rocket 4.5 19:59:08 64° WNW 19:59:41 67° NW 20:05:50 10° NE
H-2A R/B 4.5 20:03:42 14° NW 20:03:42 14° NW 20:04:24 10° NNW
Cosmos 1975 Rocket 3.9 20:01:46 47° NNE 20:01:46 47° NNE 20:04:59 10° NE
Nimbus 7 Rocket 4.3 19:55:26 10° NE 20:01:20 81° NW 20:01:40 77° W
IRS-1D 4.4 19:56:35 10° NNE 20:01:20 40° E 20:01:59 38° ESE
Cosmos 1437 Rocket 4.2 20:02:47 36° ENE 20:02:47 36° ENE 20:05:37 10° NE
USA 32 4.1 20:02:37 78° ENE 20:02:37 78° ENE 20:07:41 10° NNE
Cosmos 1782 4.1 20:05:57 40° NE 20:05:57 40° NE 20:09:19 10° E
GP-B 3.7 20:07:02 55° NE 20:07:02 55° NE 20:11:04 10° N
PSLV R/B 4.3 20:03:42 10° NE 20:06:59 51° NE 20:06:59 51° NE
CZ-2D R/B 2.6 20:05:22 10° NNE 20:10:36 52° ESE 20:11:13 50° SE
Cosmos 1655 Rocket 4.5 20:10:04 44° WNW 20:11:45 56° NNW 20:18:00 10° ENE
Okean 3 4.5 20:12:59 42° N 20:12:59 42° N 20:16:24 10° NE
MOS 1 Rocket 4.0 20:09:15 10° ENE 20:13:20 44° N 20:13:20 44° N
Meteor 2-21 4.3 20:14:04 72° W 20:14:31 76° NW 20:20:37 10° NE
Mayak -0.3 20:12:51 10° NE 20:16:19 45° N 20:16:19 45° N
ARIANE 5 R/B 3.7 20:14:15 10° NNE 20:18:58 37° E 20:20:30 31° SE
Cosmos 1674 Rocket 4.3 20:19:46 48° N 20:19:46 48° N 20:23:38 10° NE
Cosmos 1400 Rocket 3.9 20:21:04 44° ENE 20:21:04 44° ENE 20:24:11 10° ESE
SL-16 R/B 3.0 20:20:42 39° SE 20:20:42 39° SE 20:25:36 10° E
Cosmos 1025 Rocket 3.6 20:22:02 56° NNE 20:22:02 56° NNE 20:25:33 10° NE
MOS 1-B Rocket 4.2 20:15:18 10° NE 20:21:20 69° ESE 20:22:44 54° S
Cosmos 389 Rocket 4.3 20:24:31 32° NE 20:24:31 32° NE 20:26:37 10° NE
Okean 1-7 Rocket 4.1 20:23:39 59° E 20:23:39 59° E 20:27:44 10° NNE
Cosmos 1674 4.0 20:25:05 38° ENE 20:25:05 38° ENE 20:27:49 10° NNE
NOSS 0 Rocket 4.5 20:24:46 43° SSE 20:24:46 43° SSE 20:30:08 10° E
Cosmos 1140 Rocket 4.0 20:24:56 49° SE 20:24:56 49° SE 20:29:23 10° ENE
Meteor 1-21 4.1 20:24:40 79° SSW 20:25:02 86° SE 20:30:56 10° NE
Cosmos 2221 Rocket 4.4 20:26:57 46° N 20:26:57 46° N 20:31:15 10° ENE
Okean 1-7 4.0 20:27:05 42° N 20:27:05 42° N 20:31:09 10° ENE
Cosmos 1606 4.2 20:28:41 33° E 20:28:41 33° E 20:31:06 10° ESE
Thor Agena Rocket 3.8 20:23:08 10° ENE 20:28:12 60° NNW 20:28:37 58° NW
Cosmos 1943 4.4 20:29:44 30° SE 20:30:19 30° SE 20:35:11 10° ENE
Cosmos 1066 Rocket 4.2 20:30:40 70° WNW 20:31:11 75° NW 20:37:06 10° NE
Meteor 2-14 Rocket 4.3 20:30:53 67° W 20:31:33 73° NW 20:37:40 10° NE
Meteor 1-24 Rocket 4.4 20:29:54 40° SSE 20:31:40 53° ESE 20:37:20 10° NNE
Cosmos 2251 Rocket 3.8 20:33:05 58° SE 20:33:05 58° SE 20:37:43 10° E
COSMOS 2428 3.4 20:33:35 42° SSE 20:33:35 42° SSE 20:37:59 10° ESE
Okean 2 4.2 20:36:48 48° NNE 20:36:48 48° NNE 20:40:04 10° NE
IDEFIX/ARIANE 42P 4.3 20:32:27 10° NNE 20:37:03 30° E 20:41:36 10° SSE
Cosmos 1812 4.0 20:37:46 39° NNE 20:37:46 39° NNE 20:41:13 10° E
Cosmos 1386 Rocket 4.5 20:37:11 61° W 20:38:03 69° NW 20:44:16 10° NE
SL-19 R/B 4.4 20:33:54 10° NE 20:40:14 86° SE 20:41:10 67° SW
Tsikada Rocket 4.4 20:34:05 10° NW 20:40:31 66° NE 20:46:56 10° ESE
Cosmos 1626 3.5 20:41:08 36° E 20:41:08 36° E 20:44:07 10° NNE
AQUA 4.2 20:35:57 10° NNE 20:40:42 57° ESE 20:40:59 56° SE
Cosmos 1602 Rocket 4.3 20:41:06 48° ESE 20:41:14 48° ESE 20:45:32 10° NNE
Cosmos 1707 3.8 20:43:56 44° NE 20:43:56 44° NE 20:46:39 10° NE
Cosmos 1709 Rocket 3.9 20:42:32 64° WSW 20:43:30 75° NW 20:49:51 10° NE
Cosmos 2228 Rocket 3.7 20:42:47 44° NNW 20:43:52 57° NNE 20:48:25 10° ESE
ASTEX 1 3.9 20:39:00 10° SE 20:43:55 59° ENE 20:48:52 10° NNW
Meteor 1-4 Rocket 4.0 20:45:53 37° NE 20:45:53 37° NE 20:48:15 10° NE
RESURS DK-1 4.4 20:47:18 20° SE 20:47:18 20° SE 20:48:58 10° ESE
SL-16 R/B 3.8 20:49:40 22° SSE 20:49:40 22° SSE 20:51:47 10° SE
Cosmos 2327 Rocket 4.4 20:46:13 63° SSW 20:47:18 84° ESE 20:53:30 10° NNE
Cosmos 1378 4.5 20:49:45 37° NNE 20:49:45 37° NNE 20:52:13 10° NE
Cosmos 2341 Rocket 4.1 20:46:48 46° S 20:48:39 70° ESE 20:54:56 10° NNE
Cosmos 2360 Rocket 3.1 20:50:43 34° SSE 20:50:43 34° SSE 20:54:24 10° SE
CZ-2C R/B 4.2 20:46:49 10° NNE 20:50:14 31° E 20:50:39 30° ESE
Cosmos 2237 Rocket 2.7 20:50:34 45° SSE 20:50:34 45° SSE 20:55:40 10° E
NPP 3.9 20:45:31 10° NE 20:50:56 65° ESE 20:51:53 55° SSE
Cosmos 1447 Rocket 4.4 20:45:19 10° NW 20:51:42 89° WSW 20:58:06 10° SSE
Cosmos 1000 Rocket 4.4 20:46:20 10° NNW 20:52:37 65° WSW 20:53:01 63° SW
Cosmos 1809 Rocket 4.5 20:51:39 57° WNW 20:52:38 65° NNW 20:58:43 10° NE
Cosmos 1536 Rocket 3.9 20:53:33 62° N 20:53:33 62° N 20:57:30 10° NE
Cosmos 494 Rocket 4.4 20:53:59 51° SSE 20:53:59 51° SSE 20:58:14 10° ESE
SL-16 R/B 3.7 20:55:26 26° NW 20:55:26 26° NW 20:59:12 10° NNW
Cosmos 2098 Rocket 3.8 20:56:30 41° N 20:56:30 41° N 20:59:10 10° NE
Cosmos 1378 Rocket 4.2 20:55:56 46° N 20:55:56 46° N 20:59:53 10° NE
EO 1 Del DPAF 4.3 20:52:10 10° ENE 20:55:25 40° NNE 20:55:25 40° NNE
Meteor 1-23 Rocket 4.3 20:54:59 60° WNW 20:55:47 67° NNW 21:01:34 10° ENE
ADEOS II 2.8 20:50:48 10° NNE 20:55:58 50° ESE 20:57:44 36° SSE
CZ-2C R/B 4.1 20:51:27 10° ESE 20:56:01 63° NNE 20:57:12 46° NNW
Cosmos 407 Rocket 3.6 20:56:15 59° SSE 20:56:15 59° SSE 21:01:17 10° E
Meteor 1-27 Rocket 4.1 20:55:01 37° NW 20:57:11 61° NNE 21:02:57 10° E
Cosmos 2322 Rocket 3.6 21:00:00 24° SSE 21:00:00 24° SSE 21:02:32 10° SE
Cosmos 1933 3.9 20:58:20 57° ENE 20:58:20 57° ENE 21:01:59 10° ESE
Cosmos 1703 Rocket 4.5 20:57:25 41° NNW 20:58:01 43° N 21:02:20 10° ENE
SME Rocket 3.4 20:54:33 10° NE 20:58:21 63° ESE 20:58:21 63° ESE
Cosmos 1862 Rocket 4.4 20:59:25 41° NNW 21:00:11 45° NNE 21:04:24 10° E
Helios 1B rocket 3.0 20:57:45 10° NE 21:01:19 54° N 21:01:19 54° N
CZ-4 R/B 3.8 20:57:14 10° NE 21:01:47 70° NNW 21:01:47 70° NNW
Meteor 2-4 Rocket 4.1 21:01:14 48° WNW 21:02:39 62° NNW 21:08:33 10° ENE
Meteor 2-20 Rocket 4.4 20:59:42 10° NW 21:05:56 90° WSW 21:12:09 10° SSE
Meteor 1-13 Rocket 4.5 21:04:49 51° WNW 21:06:00 62° NNW 21:11:39 10° ENE
Cosmos 614 Rocket 4.1 21:06:54 59° SSE 21:06:54 59° SSE 21:11:52 10° E
Meteor 2-21 Rocket 4.5 21:06:12 56° W 21:07:17 66° NW 21:13:21 10° NE
Cosmos 1727 Rocket 4.3 21:01:39 10° NNW 21:07:03 48° WNW 21:07:03 48° WNW
Cosmos 1610 Rocket 4.5 21:06:40 55° SSW 21:08:12 89° ESE 21:14:35 10° NE
ADEOS Rocket 3.5 21:01:07 10° ESE 21:08:39 76° NNE 21:15:00 13° NW
Meteor 2-16 Rocket 4.5 21:08:18 57° W 21:09:24 68° NW 21:15:34 10° NE
Cosmos 2123 Rocket 3.8 21:04:42 10° NNW 21:10:51 68° WSW 21:13:05 40° S
KORONAS-FOTON 4.4 21:12:40 58° ENE 21:12:40 58° ENE 21:16:00 10° NE
CZ-2C R/B 3.1 21:06:49 10° E 21:12:10 58° NNE 21:14:21 34° NW
In-Cosmos 22 4.2 21:12:54 58° SSW 21:14:04 81° SE 21:19:54 10° NE
Cosmos 1745 Rocket 4.2 21:12:44 49° W 21:14:13 61° NNW 21:20:35 10° NE
Cosmos 1980 4.1 21:14:18 46° S 21:14:18 46° S 21:19:42 10° ESE
CZ-4C R/B 4.4 21:11:55 12° SSE 21:14:49 17° SE 21:18:48 10° E
Okean 1 4.3 21:14:46 39° N 21:14:57 40° N 21:18:47 10° ENE
Cosmos 1315 Rocket 3.2 21:16:11 60° NE 21:16:11 60° NE 21:20:02 10° ESE
Meteor 2-5 Rocket 3.9 21:15:33 48° S 21:17:12 73° ESE 21:23:02 10° NE
Meteor 2-20 4.3 21:11:21 10° NNW 21:17:33 80° WSW 21:23:45 10° SSE
Cosmos 1892 Rocket 3.5 21:19:05 78° NNE 21:19:05 78° NNE 21:23:12 10° NE
Cosmos 676 Rocket 4.1 21:18:42 57° S 21:19:00 58° SSE 21:24:06 10° E
Meteor 2-2 Rocket 4.1 21:13:56 10° NW 21:19:36 65° WSW 21:25:11 10° SSE
Exosat Rocket 4.0 21:20:27 43° S 21:20:27 43° S 21:24:44 10° SE
CBERS-1 4.2 21:14:33 10° NE 21:19:44 69° ESE 21:20:52 52° S
Cosmos 2322 4.3 21:21:02 41° S 21:21:02 41° S 21:25:42 10° SE
Cosmos 1515 Rocket 3.7 21:19:52 61° N 21:20:31 73° NE 21:24:53 10° SE
Cosmos 1707 Rocket 4.2 21:19:13 38° NNW 21:20:36 53° NNE 21:25:01 10° ESE
Resurs 1-4 Rocket 2.1 21:15:39 10° NE 21:21:02 78° SE 21:22:05 58° SSW
Cosmos 1328 Rocket 3.5 21:22:12 82° NE 21:22:12 82° NE 21:26:35 10° SE
Cosmos 1190 Rocket 4.0 21:22:33 60° S 21:22:52 61° SSE 21:28:00 10° E
Cosmos 2218 Rocket 4.1 21:20:22 36° S 21:23:02 71° ESE 21:29:11 10° NNE
CZ-4B R/B 3.4 21:18:29 10° NE 21:23:44 88° SE 21:24:25 69° SW
Meteor 1-27 4.4 21:18:10 10° NNW 21:30:35 - S 21:23:02 53° WNW
Cosmos 2333 Rocket 2.7 21:25:04 44° S 21:25:04 44° S 21:30:19 10° ESE
COBE Rocket 3.8 21:19:58 10° SSE 21:25:05 77° WSW 21:30:05 10° NNW
Meteor 1-26 Rocket 4.3 21:21:08 20° NW 21:25:21 80° NE 21:31:10 10° SE
SL-8 Rocket 4.0 21:23:10 40° S 21:25:35 76° ESE 21:31:51 10° NNE
IRS-1C 4.4 21:20:57 10° NE 21:26:17 63° ESE 21:28:05 40° S
Cosmos 1741 Rocket 4.4 21:25:37 48° S 21:26:21 52° SSE 21:31:28 10° ENE
Cosmos 1151 Rocket 3.0 21:27:25 77° N 21:27:42 84° NE 21:32:08 10° SE
Cosmos 2154 Rocket 3.9 21:26:05 52° SW 21:27:49 86° NW 21:34:14 10° NE
Meteor 2-6 Rocket 4.3 21:29:06 31° NW 21:31:42 69° NNE 21:37:07 10° ESE
deb Chang Zheng 4 4.1 21:27:31 10° NE 21:31:45 53° ESE 21:32:35 45° SSE
Cosmos 2184 Rocket 4.0 21:30:58 52° WSW 21:32:37 77° NW 21:39:03 10° NE
Cosmos 1626 Rocket 3.6 21:33:13 72° SSE 21:33:32 76° ESE 21:38:02 10° NE
Cosmos 2074 Rocket 3.9 21:32:21 53° WSW 21:33:51 75° NW 21:40:09 10° NE
Meteor 1-29 4.3 21:31:16 10° NE 21:33:41 35° NNE 21:33:41 35° NNE
Cosmos 1048 Rocket 4.5 21:36:52 45° S 21:36:52 45° S 21:41:17 10° SE
Cosmos 1437 Rocket 2.9 21:38:11 75° NE 21:38:11 75° NE 21:41:57 10° NE
SL-14 R/B 3.5 21:38:22 67° ESE 21:38:22 67° ESE 21:42:09 10° NE
Cosmos 1842 3.9 21:39:10 46° N 21:39:10 46° N 21:42:27 10° NE
Cosmos 1975 Rocket 3.6 21:38:55 46° NNW 21:39:02 47° NNW 21:43:14 10° NE
Cosmos 1821 Rocket 4.5 21:33:56 12° S 21:39:27 58° E 21:45:33 10° NNE
IRS-1D 3.5 21:36:13 10° NE 21:41:15 75° ESE 21:42:27 52° SSW
Cosmos 2219 Rocket 2.6 21:42:14 43° SSW 21:42:14 43° SSW 21:47:31 10° SE
Cosmos 1782 3.2 21:41:36 51° N 21:42:20 61° NE 21:46:21 10° ESE
Spot 4 Rocket 4.5 21:37:27 10° NE 21:42:35 60° ESE 21:44:55 31° S
USA 32 4.1 21:43:09 56° WNW 21:43:41 59° NW 21:48:55 10° NNE
GP-B 3.2 21:44:30 63° NW 21:44:30 63° NW 21:48:31 10° N
PSLV R/B 3.7 21:40:31 10° NE 21:44:46 60° NNW 21:44:46 60° NNW
DMSP B5D1-3 4.4 21:39:48 10° SE 21:44:59 81° SW 21:48:03 25° NW
Cosmos 1242 Rocket 3.8 21:45:07 34° SE 21:45:53 38° ESE 21:49:19 10° NE
Cosmos 1825 Rocket 4.0 21:45:04 41° SSE 21:46:22 59° ESE 21:50:47 10° NNE
Cosmos 1954 Rocket 4.1 21:46:17 54° SSW 21:47:00 60° SSE 21:52:08 10° E
ATLAS 2AS CENTAUR R/B 4.0 21:48:13 25° SSW 21:48:13 25° SSW 21:53:17 10° SSE
Cosmos 1271 Rocket 3.5 21:48:46 43° SSE 21:49:36 51° ESE 21:53:32 10° NE
Okean 3 4.3 21:49:30 38° NNW 21:50:15 41° N 21:54:18 10° ENE
Cosmos 2366 rocket 4.0 21:48:02 33° SSW 21:51:04 80° ESE 21:57:18 10° NNE
CZ-2D R/B 2.1 21:45:46 10° NE 21:51:08 89° SE 21:52:32 52° SW
MOS 1 Rocket 3.9 21:47:06 10° E 21:51:14 46° NNE 21:52:38 34° NNW
Mayak -0.4 21:48:09 10° ENE 21:52:11 42° N 21:52:53 39° NNW
SAR-Lupe-2 3.8 21:51:18 10° SE 21:54:37 69° E 21:54:37 69° E
Cosmos 1400 Rocket 2.8 21:56:42 82° NW 21:56:53 89° ENE 22:01:01 10° SE
Cosmos 2026 Rocket 4.5 21:53:44 24° NW 21:57:26 56° NNE 22:03:25 10° E
Cosmos 1674 Rocket 4.4 21:56:52 38° NNW 21:57:46 43° N 22:02:04 10° ENE
Cosmos 389 Rocket 3.1 21:58:24 52° N 21:58:24 52° N 22:01:30 10° NE
ARIANE 5 R/B 2.7 21:53:45 10° NE 21:58:49 70° ESE 22:00:50 37° SSW
Meteor 1-10 Rocket 4.3 21:55:52 27° NW 21:58:59 75° NE 22:04:35 10° ESE
Cosmos 1025 Rocket 3.3 21:58:56 52° NW 21:59:06 53° NNW 22:03:27 10° NE
Cosmos 1674 2.8 21:59:56 69° N 21:59:56 69° N 22:03:28 10° NE
CZ-2D R/B 3.9 21:56:14 10° NNE 22:00:33 65° ESE 22:01:53 42° S
Okean 1-7 Rocket 3.5 22:01:06 67° W 22:01:27 71° NW 22:06:02 10° NE
Cosmos 1850 Rocket 4.3 22:01:23 46° SSW 22:02:35 58° SSE 22:07:46 10° E
Cosmos 2346 Rocket 4.4 21:56:55 10° NW 22:03:09 88° SW 22:09:16 10° SSE
IRS-P3 4.1 21:57:51 10° NE 22:03:14 80° SE 22:05:13 41° SSW
Cosmos 1606 2.7 22:03:43 77° ESE 22:03:43 77° ESE 22:07:17 10° SE
CZ-2C R/B 3.8 21:58:47 10° NNE 22:03:34 39° E 22:08:11 10° SSE
SL-16 R/B 2.7 22:02:34 41° SSW 22:03:44 46° S 22:09:10 10° ESE
Okean 1-7 3.8 22:03:56 34° NNW 22:05:19 46° NNE 22:09:31 10° E
Cosmos 2221 Rocket 4.4 22:04:26 34° NW 22:05:49 45° N 22:10:11 10° E
Cosmos 1140 Rocket 3.5 22:04:57 52° SW 22:05:52 62° S 22:10:58 10° E
Cosmos 1269 Rocket 4.2 22:06:03 49° SW 22:06:18 50° SSW 22:11:25 10° SE
Cosmos 1603 4.4 22:05:24 34° SSW 22:07:08 44° SSE 22:12:34 10° E
Cosmos 1703 4.2 22:05:22 26° SSE 22:07:12 47° ESE 22:10:58 10° NNE
Thor Agena Rocket 3.8 22:02:12 10° E 22:07:16 61° NNE 22:09:12 36° NW
Cosmos 1953 Rocket 3.9 22:06:14 33° S 22:07:58 61° ESE 22:12:16 10° NNE
Meteor 1-21 4.4 22:07:01 46° W 22:08:40 68° NNW 22:14:31 10° ENE
NOSS 0 Rocket 4.4 22:08:46 39° SW 22:09:55 43° SSW 22:15:45 10° SE
Cosmos 1092 Rocket 4.4 22:05:48 20° NW 22:10:22 61° NNE 22:16:38 10° ESE
MOS 1-B Rocket 4.0 22:04:42 10° NE 22:10:40 80° NW 22:13:15 40° WSW
Landsat 4 4.4 22:09:39 10° ENE 22:13:12 42° N 22:13:34 41° NNW
Okean 2 4.0 22:12:55 42° NNW 22:13:16 43° NNW 22:17:18 10° ENE
Cosmos 1943 4.0 22:11:32 32° SSW 22:13:28 42° SSE 22:18:45 10° E
Cosmos 1812 3.4 22:12:52 39° NNW 22:13:56 53° NNE 22:17:46 10° ESE
Aureole 1 Rocket 3.8 22:15:26 28° SE 22:15:26 28° SE 22:17:17 10° ESE
Cosmos 2251 Rocket 3.6 22:13:34 50° WSW 22:14:29 58° SSW 22:19:41 10° ESE
Meteor 1-24 Rocket 3.8 22:12:07 38° SW 22:14:36 87° SE 22:20:30 10° NE
Cosmos 1626 2.0 22:15:42 86° ESE 22:15:42 86° ESE 22:19:28 10° NE
COSMOS 2428 3.2 22:15:35 39° SW 22:16:07 40° SSW 22:21:24 10° SE
SL-19 R/B 4.5 22:12:30 10° ENE 22:15:54 51° N 22:15:54 51° N
Meteor 2-17 Rocket 4.3 22:14:46 39° SW 22:17:13 83° NW 22:23:22 10° NE
IDEFIX/ARIANE 42P 3.2 22:12:29 10° NNE 22:17:39 56° ESE 22:22:46 10° S
AQUA 3.7 22:13:57 10° NE 22:18:45 82° NW 22:19:52 54° WSW
Cosmos 1707 3.1 22:19:06 50° NNW 22:19:06 50° NNW 22:22:45 10° NE
Cosmos 1602 Rocket 3.4 22:18:15 62° SW 22:18:59 86° NW 22:23:28 10° NE
Cosmos 2242 Rocket 4.2 22:17:19 30° NW 22:19:22 55° NNE 22:23:54 10° ESE
Cosmos 962 Rocket 4.4 22:16:51 39° SW 22:19:26 78° NW 22:25:46 10° NE
Meteor 1-4 Rocket 2.9 22:20:06 55° N 22:20:06 55° N 22:23:29 10° NE
DMSP B5D2-2 4.2 22:15:04 10° ESE 22:20:19 73° NE 22:23:23 25° NW
COSMO-SKYMED 1 4.0 22:16:47 10° S 22:18:42 25° S 22:18:42 25° S
Cosmos 2228 Rocket 3.0 22:20:17 32° NW 22:22:24 87° WSW 22:27:02 10° SSE
RESURS DK-1 3.7 22:23:12 27° S 22:23:12 27° S 22:26:13 10° SE
Cosmos 405 3.7 22:22:41 43° N 22:22:44 43° N 22:26:10 10° ENE
H-2A R/B 3.9 22:18:38 10° NNE 22:22:55 42° ESE 22:27:14 10° S
ASTEX 1 3.3 22:17:57 10° S 22:22:58 74° W 22:28:01 10° N
Cosmos 1378 3.9 22:24:24 40° NNW 22:24:24 40° NNW 22:27:56 10° NE
Cosmos 1758 Rocket 3.6 22:22:59 41° SSW 22:24:31 79° ESE 22:29:04 10° NE
Okean O Rocket 4.0 22:21:24 10° NNE 22:24:59 24° E 22:28:34 10° SE
CZ-2C R/B 2.9 22:21:27 10° NE 22:25:13 70° ESE 22:26:04 50° S
Cosmos 1295 Rocket 4.4 22:23:09 40° WSW 22:25:29 73° NW 22:31:41 10° NE
SJ 16-02 4.3 22:23:18 10° SE 22:26:00 16° E 22:28:42 10° ENE
Tsikada Rocket 4.0 22:20:00 10° NNW 22:26:29 83° WSW 22:32:55 10° SSE
PSLV R/B 4.2 22:24:56 10° NNE 22:29:06 53° ESE 22:32:19 16° S
EO 1 Del DPAF 4.0 22:25:49 10° E 22:29:30 47° NNE 22:30:28 37° NNW
Cosmos 1709 Rocket 4.3 22:27:12 36° WNW 22:29:36 56° NNW 22:35:50 10° ENE
SL-16 R/B 3.6 22:31:34 22° SSW 22:31:34 22° SSW 22:34:14 10° S
Cosmos 1536 Rocket 4.0 22:30:42 43° NW 22:31:25 47° NNW 22:35:47 10° ENE
NPP 3.6 22:26:00 10° NE 22:31:26 80° NW 22:33:22 42° WSW
Cosmos 2360 Rocket 3.0 22:32:30 31° SW 22:32:30 31° SW 22:37:07 10° SSE
Cosmos 2327 Rocket 4.5 22:30:54 40° W 22:33:05 65° NW 22:39:16 10° NE
CZ-2C R/B 3.6 22:28:32 10° SE 22:33:10 83° SW 22:35:27 31° NW
Cosmos 1816 Rocket 4.4 22:27:04 10° NNW 22:33:28 79° WSW 22:39:50 10° SSE
Cosmos 2237 Rocket 2.7 22:32:24 38° SW 22:33:40 44° SSW 22:39:02 10° SE
Cosmos 1378 Rocket 4.3 22:32:59 34° NW 22:34:10 42° N 22:38:19 10° ENE
Cosmos 494 Rocket 4.4 22:34:00 42° SW 22:34:24 43° SW 22:39:22 10° SSE
Cosmos 2341 Rocket 3.9 22:31:42 36° WSW 22:34:26 75° NW 22:40:47 10° NE
Cosmos 1933 3.2 22:34:12 63° WNW 22:34:42 73° WSW 22:38:44 10° SSE
ADEOS II 2.0 22:30:51 10° NE 22:36:10 87° SE 22:38:40 33° SW
Cosmos 1703 Rocket 4.2 22:34:35 29° NW 22:36:36 54° NNE 22:41:02 10° ESE
Helios 1B rocket 3.0 22:32:52 10° ENE 22:36:51 46° N 22:37:39 40° NW
Cosmos 2098 Rocket 3.6 22:37:00 35° NNW 22:37:26 36° N 22:40:43 10° ENE
Cosmos 864 Rocket 4.5 22:33:51 28° SW 22:37:27 84° NW 22:43:49 10° NE
Cosmos 407 Rocket 3.6 22:36:27 44° WSW 22:37:52 62° S 22:43:03 10° ESE
Cosmos 1862 Rocket 3.8 22:36:35 30° NNW 22:38:38 64° NE 22:42:59 10° ESE
SL-16 R/B 4.1 22:40:31 17° NW 22:40:31 17° NW 22:43:35 10° NNW
CZ-4 R/B 4.1 22:35:11 10° ENE 22:39:43 53° N 22:40:58 41° WNW
Meteor 1-19 Rocket 4.5 22:37:09 30° NW 22:39:59 63° NNE 22:45:29 10° E
Cosmos 2322 Rocket 3.5 22:41:50 23° SSW 22:41:50 23° SSW 22:44:54 10° S
Cosmos 968 Rocket 4.4 22:37:26 22° SSW 22:40:31 45° SE 22:45:31 10° ENE
Meteor 1-27 Rocket 3.8 22:37:25 24° NW 22:41:03 80° NE 22:46:54 10° SE
Cosmos 1934 Rocket 4.3 22:37:05 10° SSW 22:43:27 72° ESE 22:49:49 10° NNE
Cosmos 1328 4.0 22:43:44 29° S 22:45:39 68° ESE 22:49:35 10° NNE
ALOS 4.1 22:41:52 10° NNE 22:46:08 33° E 22:50:22 10° SSE
Meteor 2-4 Rocket 4.1 22:43:19 29° WNW 22:46:23 63° NNE 22:52:15 10° E
KORONAS-FOTON 3.9 22:47:46 58° WNW 22:48:02 59° NW 22:51:57 10° NE
Cosmos 614 Rocket 4.1 22:46:45 42° WSW 22:48:14 60° S 22:53:15 10° ESE
Meteor 2-20 Rocket 4.5 22:44:41 10° NNW 22:50:40 54° W 22:56:40 10° S
Okean 1 4.1 22:50:26 31° NNW 22:52:00 48° NNE 22:55:56 10° ESE
CZ-2C R/B 2.8 22:46:49 10° ESE 22:52:18 76° NE 22:55:51 22° NW
Cosmos 1315 Rocket 2.6 22:51:53 50° NW 22:52:52 81° SW 22:56:52 10° SE
ADEOS Rocket 3.4 22:46:40 10° SSE 22:54:18 79° SW 23:01:18 10° NW
SME Rocket 3.0 22:51:38 10° ENE 22:55:27 74° NNW 22:56:37 46° W
Cosmos 2123 Rocket 4.4 22:50:02 10° NNW 22:55:40 38° W 22:57:39 30° WSW
Cosmos 1959 Rocket 4.5 22:53:02 27° SW 22:56:41 77° NW 23:03:07 10° NE
In-Cosmos 22 4.3 22:54:30 37° WSW 22:56:53 70° NNW 23:02:41 10° ENE
Cosmos 1892 Rocket 3.8 22:56:16 46° WNW 22:57:03 54° NNW 23:01:22 10° NE
Cosmos 1980 4.3 22:56:09 34° WSW 22:57:42 41° SSW 23:02:58 10° SE
Cosmos 1515 Rocket 3.5 22:57:02 39° NW 22:58:25 59° WSW 23:02:42 10° S
Cosmos 1707 Rocket 3.5 22:56:22 27° NW 22:58:50 87° NE 23:03:20 10° SE
CBERS-1 4.0 22:53:55 10° NE 22:59:05 75° NW 23:01:14 36° WSW
Cosmos 1328 Rocket 3.6 22:59:18 47° WNW 22:59:53 51° WSW 23:04:07 10° S
Cosmos 1745 Rocket 4.5 22:57:24 29° WNW 23:00:33 53° N 23:06:48 10° ENE
Cosmos 2239 Rocket 4.5 22:54:27 10° SSW 23:00:37 84° ESE 23:06:50 10° NNE
Meteor 2-5 Rocket 3.8 22:58:02 33° WSW 23:00:48 75° NNW 23:06:40 10° NE
Cosmos 676 Rocket 4.1 22:58:59 38° WSW 23:00:49 62° S 23:05:58 10° ESE
Resurs 1-4 Rocket 2.1 22:55:39 10° NE 23:00:59 70° NNW 23:03:09 36° WSW
CZ-4C R/B 4.3 22:57:06 11° SSW 23:01:24 23° SSE 23:06:37 10° ESE
SL-24 R/B 4.3 22:57:10 10° N 23:02:21 76° WNW 23:07:12 10° SSW
CZ-4B R/B 3.6 22:57:15 10° ENE 23:02:26 65° NNW 23:04:21 38° W
Cosmos 2322 4.5 23:02:59 30° WSW 23:03:39 31° SW 23:08:35 10° SSE
COBE Rocket 4.3 22:59:20 10° SSW 23:04:09 41° W 23:08:53 10° NNW
Cosmos 1190 Rocket 4.1 23:02:50 38° WSW 23:04:41 60° SSW 23:09:49 10° ESE
SL-24 R/B 4.4 22:59:29 10° SSE 23:04:53 64° WSW 23:07:50 23° NW
Cosmos 1151 Rocket 3.2 23:04:18 43° WNW 23:05:12 50° WSW 23:09:27 10° S
ADEOS 3.9 23:01:07 10° NE 23:06:22 68° ESE 23:11:36 10° SSW
IRS-1C 4.1 23:01:12 10° NE 23:06:35 81° NW 23:09:21 30° WSW
Meteor 1-29 3.9 23:03:46 10° ENE 23:06:56 35° N 23:07:21 34° NNW
deb Chang Zheng 4 3.4 23:03:43 10° NE 23:08:02 83° NW 23:09:41 37° SW
CZ-4B R/B 3.8 23:04:33 10° NE 23:08:06 44° ESE 23:11:35 10° S
Cosmos 1741 Rocket 4.2 23:05:58 34° WSW 23:08:10 63° S 23:13:23 10° E
Cosmos 2333 Rocket 3.0 23:07:05 31° WSW 23:08:18 34° SW 23:13:26 10° SSE
Meteor 1-26 Rocket 4.2 23:03:30 13° NW 23:08:42 65° WSW 23:14:24 10° SSE
Cosmos 2218 Rocket 3.9 23:05:10 27° SW 23:08:44 73° NW 23:14:56 10° NE
SL-8 Rocket 4.0 23:07:49 28° WSW 23:11:13 70° NW 23:17:30 10° NE
Cosmos 1626 Rocket 3.6 23:10:20 43° W 23:11:36 62° NW 23:16:04 10° NE
Cosmos 2154 Rocket 4.1 23:10:53 32° W 23:13:54 61° NNW 23:20:13 10° NE
Cosmos 1437 Rocket 3.0 23:13:35 46° WNW 23:14:25 56° NNW 23:18:28 10° ENE
SL-14 R/B 3.2 23:13:48 51° W 23:14:32 63° NW 23:18:27 10° NE
Meteor 2-6 Rocket 4.0 23:11:19 21° NW 23:15:05 78° SW 23:20:30 10° SSE
Cosmos 1842 4.0 23:14:28 34° NW 23:15:18 39° N 23:18:59 10° ENE
Nadezhda 4 Rocket 4.1 23:10:04 13° NW 23:15:57 82° NE 23:22:20 10° SE
Cosmos 1975 Rocket 3.8 23:16:04 30° NW 23:17:38 42° N 23:21:48 10° ENE
Cosmos 2058 3.8 23:14:07 10° S 23:18:13 52° ESE 23:22:19 10° NNE
Cosmos 2184 Rocket 4.3 23:15:46 31° W 23:18:50 57° NNW 23:25:09 10° ENE
Cosmos 1782 2.7 23:17:13 35° NW 23:18:50 71° WSW 23:22:50 10° SSE
Cosmos 2266 Rocket 4.5 23:14:51 21° NW 23:19:15 59° NNE 23:25:38 10° ESE
Cosmos 2074 Rocket 4.2 23:17:03 31° W 23:19:59 56° NNW 23:26:09 10° ENE
Exosat Rocket 4.3 23:19:33 30° WSW 23:20:16 31° SW 23:24:58 10° SSE
Cosmos 1242 Rocket 2.5 23:19:10 36° SW 23:20:35 85° SE 23:24:15 10° NE
IRS-1D 3.4 23:15:38 10° NE 23:20:39 70° NNW 23:22:55 32° WSW
ERS-1 4.4 23:15:47 10° NE 23:20:58 78° NW 23:23:49 27° WSW
PSLV R/B 4.1 23:17:04 10° ENE 23:21:14 46° N 23:22:33 34° NW
GP-B 3.7 23:21:58 35° WNW 23:22:01 35° WNW 23:26:09 10° N
Spot 4 Rocket 4.0 23:16:58 10° NE 23:22:10 83° NW 23:25:24 24° SW
MSX 4.1 23:17:22 10° NE 23:23:09 72° ESE 23:28:56 10° SSW
Cosmos 1076 Rocket 4.0 23:19:33 10° S 23:23:51 60° ESE 23:28:07 10° NNE
Cosmos 1825 Rocket 3.5 23:22:13 32° SW 23:24:14 74° NW 23:28:45 10° NE
Meteor 1-31 Rocket 3.4 23:20:50 10° NNE 23:24:38 56° ESE 23:28:26 10° SSW
Cosmos 1821 Rocket 3.9 23:18:38 10° SW 23:24:46 85° NW 23:31:04 10° NE
Cosmos 2219 Rocket 3.0 23:23:56 29° WSW 23:25:18 32° SW 23:30:15 10° SSE
Cosmos 1271 Rocket 2.7 23:23:56 35° SW 23:25:33 82° NW 23:29:36 10° NE
Mayak -0.5 23:23:16 10° E 23:27:23 49° NNE 23:29:28 26° NW
Okean 3 4.1 23:26:02 26° NW 23:28:10 51° NNE 23:32:19 10° ESE
Cosmos 1605 Rocket 4.1 23:22:05 10° SSW 23:28:15 79° ESE 23:34:23 10° NNE
SAR-Lupe-2 3.6 23:24:52 10° SSE 23:28:25 54° WSW 23:28:56 48° W
Cosmos 1954 Rocket 4.2 23:26:31 32° WSW 23:28:47 60° SSW 23:33:55 10° ESE
MOS 1 Rocket 3.3 23:25:00 10° ESE 23:29:16 67° NE 23:31:56 23° NW
Meteor 2-12 Rocket 4.4 23:24:51 12° SW 23:30:45 84° NW 23:36:58 10° NE
CZ-2D R/B 2.2 23:25:56 10° ENE 23:31:12 65° NNW 23:33:51 30° W
CBERS 1 LM4 rocket 4.4 23:26:27 10° NE 23:31:19 84° SE 23:35:34 13° SW
Cosmos 1484 Rocket 3.8 23:27:30 10° NNE 23:31:23 50° ESE 23:35:18 10° S
Cosmos 389 Rocket 3.1 23:32:17 38° NW 23:33:05 45° N 23:36:37 10° ENE
Cosmos 1400 Rocket 3.1 23:32:21 39° WNW 23:33:13 46° WSW 23:37:10 10° S
Meteor 1-21 Rocket 4.2 23:29:40 16° SW 23:34:28 86° NW 23:40:13 10° NE
Cosmos 1674 3.1 23:34:46 40° WNW 23:35:32 45° NNW 23:39:17 10° NE
ATLAS 2AS CENTAUR R/B 4.3 23:35:41 18° WSW 23:36:02 18° WSW 23:40:43 10° SSW
Cosmos 1674 Rocket 4.2 23:33:58 25° NW 23:36:19 50° NNE 23:40:42 10° E
CZ-2D R/B 3.5 23:32:03 10° NE 23:36:21 71° NW 23:38:32 29° WSW
Cosmos 2366 rocket 4.0 23:32:44 23° WSW 23:36:49 67° NW 23:43:01 10° NE
Cosmos 1025 Rocket 3.7 23:35:49 31° NW 23:37:25 43° N 23:41:39 10° ENE
ARIANE 5 R/B 2.4 23:33:04 10° NE 23:38:07 74° NW 23:41:10 25° WSW
CZ-4 R/B 4.2 23:35:32 10° NNE 23:38:27 19° ENE 23:41:19 10° SE
Cosmos 1606 3.0 23:38:46 42° W 23:39:05 43° WSW 23:42:42 10° S
Okean 1-7 Rocket 4.0 23:38:32 33° WNW 23:40:09 48° NNW 23:44:36 10° NE
CZ-2C R/B 2.7 23:37:22 10° NE 23:42:30 72° ESE 23:47:27 10° SSW
Meteor 1-10 Rocket 4.1 23:38:21 18° NW 23:42:32 70° WSW 23:48:05 10° SSE
Cosmos 1703 3.1 23:40:44 22° SW 23:43:12 82° NW 23:47:08 10° NE
IRS-P3 4.1 23:38:00 10° NE 23:43:21 70° NNW 23:46:29 25° WSW
Cosmos 2026 Rocket 4.1 23:38:17 15° NW 23:43:23 77° NE 23:49:29 10° SE
Okean 1-7 3.2 23:40:48 23° NW 23:43:25 70° NE 23:47:46 10° SE
COSMOS 2406 4.5 23:38:37 10° SW 23:43:55 39° SSE 23:49:13 10° E
Cosmos 1850 Rocket 4.2 23:41:41 28° WSW 23:44:25 63° S 23:49:39 10° ESE
Cosmos 2221 Rocket 4.0 23:41:54 23° NW 23:44:39 60° NE 23:49:08 10° ESE
Cosmos 1655 Rocket 4.3 23:39:57 17° NW 23:44:55 67° NE 23:51:14 10° ESE
Okean 3 Rocket 4.3 23:40:55 10° S 23:45:20 56° ESE 23:49:44 10° NNE
MTI 3.8 23:42:35 10° SE 23:45:46 75° NE 23:46:56 36° NNW
Cosmos 1953 Rocket 3.4 23:43:25 25° SW 23:45:55 71° NW 23:50:17 10° NE
Thor Agena Rocket 3.6 23:41:19 10° ESE 23:46:29 79° NE 23:49:47 23° NW
Landsat 4 4.2 23:43:14 10° ESE 23:46:52 52° NNE 23:48:34 28° NW
SL-08 R/B 4.4 23:42:23 18° WSW 23:47:05 69° NW 23:53:15 10° NE
SL-16 R/B 2.9 23:44:27 25° WSW 23:47:11 42° SSW 23:52:31 10° SE
Cosmos 1140 Rocket 3.7 23:44:57 29° W 23:47:24 56° SSW 23:52:27 10° SE
Cosmos 1812 2.6 23:47:58 27° NW 23:50:01 84° WSW 23:53:55 10° SSE
Cosmos 1603 4.4 23:47:17 23° WSW 23:50:37 46° S 23:56:06 10° ESE
Okean 2 4.2 23:49:01 27° NW 23:50:50 42° N 23:54:50 10° E
Cosmos 1535 Rocket 4.4 23:44:47 10° SW 23:50:59 84° NW 23:57:10 10° NE
Cosmos 1766 Rocket 4.4 23:46:51 10° S 23:51:07 53° ESE 23:55:24 10° NNE
Cosmos 1626 2.3 23:50:17 39° W 23:51:15 51° NNW 23:54:56 10° NE
Cosmos 1408 3.9 23:49:42 10° S 23:53:12 42° ESE 23:56:42 10° NNE
Meteor 1-11 4.4 23:48:09 10° SW 23:53:58 83° SE 23:59:51 10° NE
Meteor 1-4 Rocket 3.1 23:54:18 34° NW 23:55:23 45° N 23:58:58 10° ENE
Cosmos 1892 3.4 23:51:41 10° S 23:55:24 54° ESE 23:59:08 10° NNE
Cosmos 1707 3.5 23:54:17 30° NW 23:55:28 39° N 23:59:07 10° ENE
